EHI
0 0 0 0 0 0 0 0 0 0 0 0 0 0 0 0 0 0 0 0 0 0 0 0 0 0 0 0 0 0 0 0 0 0 0 0 0 0
0 0 0 0 0 0 0 0 0 0 0 0 0 0 0 0 0 0 0 0 0 0 0 0 0 0 0 0 0 0 0 0 0 0 0 0 0 0
0 0 0 0 0 0 0 0 0 0 0 0 0 0 0 0 0 0 0 0 0 0 0 0 0 0 0 0 0 0 0 0 0 0 0 0 0 0
0 0 0 0 0 0 0 0 0 0 0 0 0 0 0 0 0 0 0 0 0 0 0 0 0 0 0 0 0 0 0 0 0 0 0 0 0 0
0 0 0 0 0 0 0 0 0 0 0 0 0 0 0 0 0 0 0 0 0 0 0 0 0 0 0 0 0 0 0 0 0 0 0 0 0 0
0 0 0 0 0 0 0 0 0 0 0 0 0 0 0 0 0 0 0 0 0 0 0 0 0 0 0 0 0 0 0 0 0 0 0 0 0 0
0 0 0 0 0 0 0 0 0 0 0 0 0 0 0 0 0 0 0 0 0 0 0 0 0 0 0 0 0 0 0 0 0 0 0 0 0 0
0 0 0 0 0 0 0 0 0 0 0 0 0 0 0 0 0 0 0 0 0 0 0 0 0 0 0 0 0 0 0 0 0 0 0 0 0 0
0 0 0 0 0 0 0 0 0 0 0 0 0 0 0 0 0 0 0 0 0 0 0 0 0 0 0 0 0 0 0 0 0 0 0 0 0 0
0 0 0 0 0 0 0 0 0 0 0 0 0 0 0 0 0 0 0 0 0 0 0 0 0 0 0 0 0 0 0 0 0 0 0 0 0 0
0 0 0 0 0 0 0 0 0 0 0 0 0 0 0 0 0 0 0 0 0 0 0 0 0 0 0 0 0 0 0 0 0 0 0 0 0 0
0 0 0 0 0 0 0 0 0 0 0 0 0 0 0 0 0 0 0 0 0 0 0 0 0 0 0 0 0 0 0 0 0 0 0 0 0 0
0 0 0 0 0 0 0 0 0 0 0 0 0 0 0 0 0 0 0 0 0 0 0 0 0 0 0 0 0 0 0 0 0 0 0 0 0 0
0 0 0 0 0 0 0 0 0 0 0 0 0 0 0 0 0 0 0 0 0 0 0 0 0 0 0 0 0 0 0 0 0 0 0 0 0 0
0 0 0 0 0 0 0 0 0 0 0 0 0 0 0 0 0 0 0 0 0 0 0 0 0 0 0 0 0 0 0 0 0 0 0 0 0 0
0 0 0 0 0 0 0 0 0 0 0 0 0 0 0 0 0 0 0 0 0 0 0 0 0 0 0 0 0 0 0 0 0 0 0 0 0 0
0 0 0 0 0 0 0 0 0 0 0 0 0 0 0 0 0 0 0 0 0 0 0 0 0 0 0 0 0 0 0 0 0 0 0 0 0 0
0 0 0 0 0 0 0 0 0 0 0 0 0 0 0 0 0 0 0 0 0 0 0 0 0 0 0 0 0 0 0 0 0 0 0 0 0 0
0 0 0 0 0 0 0 0 0 0 0 0 0 0 0 0 0 0 0 0 0 0 0 0 0 0 0 0 0 0 0 0 0 0 0 0 0 0
0 0 0 0 0 0 0 0 0 0 0 0 0 0 0 0 0 0 0 0 0 0 0 0 0 0 0 0 0 0 0 0 0 0 0 0 0 0
0 0 0 0 0 0 0 0 0 0 0 0 0 0 0 0 0 0 0 0 0 0 0 0 0 0 0 0 0 0 0 0 0 0 0 0 0 0
0 0 0 0 0 0 0 0 0 0 0 0 0 0 0 0 0 0 0 0 0 0 0 0 0 0 0 0 0 0 0 0 0 0 0 0 0 0
0 0 0 0 0 0 0 0 0 0 0 0 0 0 0 0 0 0 0 0 0 0 0 0 0 0 0 0 0 0 0 0 0 0 0 0 0 0
Wind_Speed
3 2 1 2 2 2 3 3 5 9 10 6 4 4 6 7 11 11 11 16 21 21 21 22 22 23 23 24 23 23 22 22 22 22 22 22 20 19
2 3 3 3 4 3 3 4 4 7 9 5 6 9 11 11 15 13 13 21 21 21 21 21 22 23 24 24 25 25 25 24 24 24 24 23 21 19
4 5 5 5 4 4 4 4 5 5 10 10 7 8 10 13 13 13 13 13 12 19 21 21 21 21 21 22 23 23 24 24 25 25 24 23 22 19
5 6 7 6 7 6 5 6 6 6 8 13 11 10 12 13 14 14 13 12 11 17 21 21 21 20 18 18 17 17 19 20 21 22 22 22 21 19
5 6 8 8 8 7 8 7 7 7 8 11 13 11 11 11 12 12 13 11 12 13 17 18 19 19 17 14 13 12 12 14 16 16 16 16 17 16
6 7 8 8 9 9 8 8 8 9 10 10 11 11 11 11 9 9 10 8 9 10 13 15 17 19 18 16 14 13 10 9 9 10 11 11 11 11
8 8 8 12 13 10 9 9 9 9 9 9 10 10 10 9 8 7 9 9 10 9 9 9 9 9 10 13 15 14 11 9 9 9 9 10 10 10
9 9 10 10 11 14 15 16 16 13 12 11 10 10 12 11 9 8 8 8 6 4 5 8 7 8 9 8 12 14 12 11 11 11 11 11 12 12
8 8 8 9 12 9 13 17 17 19 18 13 12 11 12 11 10 9 8 8 8 6 6 8 7 9 8 8 14 14 14 13 12 12 12 13 13 13
8 9 9 10 10 11 12 12 12 13 14 10 9 10 10 9 8 7 8 8 8 7 6 6 5 5 6 6 10 13 13 13 13 12 13 13 13 13
9 9 10 10 12 14 13 12 13 11 12 13 13 12 12 11 8 6 6 6 7 6 3 3 3 3 4 4 5 9 11 11 12 12 12 13 13 12
9 9 12 12 14 16 11 10 11 10 11 11 10 9 8 8 8 6 5 6 5 4 3 4 3 3 3 2 2 2 4 7 9 10 12 13 13 9
8 8 8 13 16 16 13 9 11 12 9 9 7 6 6 5 5 5 5 4 4 4 4 4 3 2 3 3 3 2 3 3 3 5 9 11 13 11
8 8 9 15 16 15 11 11 14 11 6 6 6 5 5 5 5 6 6 5 4 5 6 5 3 3 3 3 3 3 2 3 3 4 4 8 10 13
8 13 15 15 14 10 11 14 10 6 5 6 6 5 5 5 5 5 5 5 4 4 4 4 4 4 3 3 3 3 3 2 3 4 5 6 6 7
9 11 14 12 10 10 9 8 6 6 5 5 5 5 5 5 5 4 4 5 4 4 4 5 4 4 5 4 4 4 3 3 2 3 4 5 6 7
8 6 5 7 8 8 8 7 6 6 6 5 5 5 5 5 5 5 4 4 4 5 6 5 5 2 2 7 5 5 5 4 3 1 2 3 4 6
7 5 6 7 7 7 8 7 6 7 6 5 5 5 5 6 6 5 4 5 5 6 6 6 7 5 2 2 12 8 6 6 5 6 5 5 4 4
5 5 6 7 7 7 7 7 6 7 7 6 5 5 5 5 5 6 6 6 6 6 7 7 7 7 8 8 10 16 9 7 8 9 9 8 6 6
5 5 6 7 7 7 7 7 7 7 7 7 6 5 5 4 5 5 6 7 7 6 7 7 7 7 7 6 6 10 19 11 8 9 9 9 9 12
6 6 6 6 7 7 7 7 7 7 7 7 6 6 4 4 4 5 5 8 7 7 7 8 8 10 5 4 7 10 13 20 19 10 6 7 9 10
5 6 6 7 7 7 7 7 7 7 7 6 6 5 4 4 5 6 6 6 6 6 7 7 8 8 9 10 11 11 12 12 17 26 26 19 7 7
6 6 6 7 7 7 7 8 8 7 6 6 6 5 4 4 4 5 6 7 7 8 8 8 8 9 10 10 10 10 14 14 12 14 15 21 23 22
Wind_Direction
36 22 347 313 299 270 251 246 275 295 296 285 278 284 290 292 287 290 288 291 294 291 288 285 282 280 278 274 271 269 268 267 264 262 260 257 254 254
17 2 342 319 313 304 288 271 255 273 288 280 276 285 290 293 295 295 292 293 293 291 288 284 281 278 275 272 268 265 262 261 259 256 255 252 248 248
6 347 328 318 307 302 294 282 271 265 284 293 283 283 282 285 290 289 288 287 284 284 285 285 284 280 277 274 269 266 262 259 255 252 250 247 243 241
349 337 325 321 309 299 291 285 282 273 278 295 300 296 287 283 283 284 287 285 283 284 283 282 282 282 282 279 276 271 263 256 252 249 246 244 239 235
332 323 316 314 306 301 296 289 283 284 279 290 298 297 292 289 289 286 285 282 282 281 281 280 281 283 284 283 284 285 276 259 248 242 238 236 232 227
320 312 307 302 294 294 296 293 292 292 290 290 293 296 294 293 288 288 291 286 284 284 280 277 274 275 275 274 273 274 278 272 255 242 231 223 221 220
320 316 309 306 309 310 310 306 302 297 297 294 293 295 294 295 292 287 290 293 285 271 271 272 269 266 266 266 266 265 262 254 248 241 232 220 212 211
318 318 314 309 314 316 315 312 309 306 302 295 293 292 295 296 294 290 290 293 289 267 261 275 267 264 261 256 256 257 252 246 239 231 225 221 216 213
313 312 313 311 315 308 312 312 308 303 299 296 294 295 297 300 298 295 291 291 289 285 277 280 272 265 261 256 254 250 247 243 238 231 224 220 217 213
314 307 305 307 309 316 318 311 307 304 300 298 291 293 296 298 296 293 293 291 285 283 276 277 277 272 273 258 249 246 244 240 235 228 221 217 213 210
318 315 314 311 310 316 319 311 308 307 310 305 300 298 299 300 301 302 304 309 310 309 301 286 295 292 282 270 254 245 243 239 234 226 219 213 208 203
320 318 317 313 314 318 318 310 309 314 316 314 311 311 309 308 308 304 306 308 312 304 327 317 295 304 299 288 278 253 239 237 229 222 214 206 195 193
319 320 316 313 314 315 314 306 306 311 308 308 310 309 312 316 319 313 304 301 304 294 310 310 290 287 279 292 291 270 239 226 212 213 209 202 192 188
320 316 312 313 316 316 316 311 313 315 312 316 319 321 320 324 325 320 312 303 287 289 307 314 293 301 297 285 288 293 271 234 215 210 203 196 196 192
319 317 318 318 322 322 320 320 322 321 322 328 334 334 330 324 323 323 323 321 304 295 314 325 333 324 307 293 295 294 294 272 217 215 204 195 188 181
325 318 318 320 328 329 328 330 331 328 327 328 332 332 336 341 342 341 335 337 336 330 330 335 335 348 351 328 313 316 305 297 268 228 205 192 183 181
320 319 332 338 342 341 338 337 338 340 344 343 339 341 347 354 354 350 350 347 356 355 354 348 333 301 27 8 347 346 344 342 336 317 161 154 164 173
336 338 339 339 339 337 336 336 338 345 344 341 343 350 357 3 3 3 5 10 13 11 9 1 358 360 348 53 22 1 5 10 19 39 62 80 93 121
348 340 337 336 336 334 335 338 338 339 339 340 343 349 360 10 14 16 17 18 19 20 18 13 12 13 25 26 16 16 18 25 39 50 52 57 65 74
345 339 336 334 334 334 336 338 338 340 343 344 347 353 6 19 25 26 27 26 23 23 24 21 19 15 20 16 13 24 31 33 39 50 56 63 69 73
338 336 334 332 333 334 336 337 339 341 344 344 348 355 5 22 33 33 38 34 33 32 32 27 14 9 18 39 51 45 42 45 51 46 34 55 65 66
334 333 331 331 332 333 335 338 341 344 347 348 347 354 8 29 41 42 42 44 40 40 43 37 28 33 42 52 53 47 44 44 50 53 50 49 57 63
333 330 329 330 333 334 334 337 339 340 344 346 350 357 11 35 46 50 49 53 53 51 50 50 48 47 48 50 52 51 48 48 50 55 54 52 65 72